MUOS-4

Last updated on Jan. 21, 2021, 6:16 a.m. UTC

1 40887U 15044A   21020.85402052 -.00000083  00000-0  00000-0 0  9994
2 40887   2.7587 349.4668 0057589 357.0526 156.3680  1.00272620 19773
UTC
Height (km)
Latitude
Longitude
Inclination
Orbital Period
UTC large
Height (km)
Speed (km/s)
/
Latitude / Longitude
Inclination (degrees)
Orbital Period (minutes)
Azimuth
Elevation
Range (km)
Doppler Factor
iOS Compass Heading
iOS Angle

Next 30 passes for location: Hong Kong

Rise time Rise Azimuth (degrees) Set time Set Azimuth (degrees) Duration Max altitude (degrees)

No matching passes for this satellites